STARLINK-34099, 63959

Orbit data source: Space-Track

STARLINK-34099, 63959 is a payload satellite owned by SpaceX/Seattle (US) in LEO that was launched on Tue, 13 May 2025 UTC via an FALCON 9 launch vehicle from the Air Force Eastern Test Range (AFETR). Payload-class satellites include a variety of spacecraft equipped with specific instruments for various scientific and technological missions. These include communications satellites like Starlink; space stations such as the ISS; scientific satellites like the Hubble; Earth observation satellites from companies like Planet Labs, Umbra, and HawkEye 360; GPS; miniature CubeSats for education and research; and military/defense satellites.

Loading next visibility...
Identifier
63959, 2025-099H
Orbit
LEO
Country
Flag of USUS
Related business
Manufacturer
SpaceX/Seattle
Mission
Operational Commercial Communications
Bus & Motor
STARLINK V2MO, Unknown motor
Mass
575 kg wet, ~530 kg dry
Launch date (UTC)
2025-05-13 (7 months ago)
Launch vehicle
FALCON 9
Launch site
Air Force Eastern Test Range (AFETR)
Object type
Payload
Rocket body
Debris
Shape & HBR
Box + 2 Pan, 17.7 m
Radar Cross Section
36.964 m², Large (>1 m²)

Expand to show TLE details & history
Last TLE update: 23 hours ago

TLE from 23 hours ago
0 STARLINK-34099
1 63959U 25099H   25346.60065901  .00044809  00000-0  16287-2 0  9995
2 63959  43.0023 308.3590 0001432 278.5698  81.4991 15.27566530 34019
Epoch: 2025-12-12T14:24Z
TLE epoch observation values (Epoch: 2025-12-12T14:24:56.938Z)
Latitude
-0.00004°
Longitude
10.58176°
Altitude
482.72 km
Speed
7.626 km/s
True Right ascension
20h 33m 26s
True Declination
0° 00' 00"
Sunlit
Object was in daylight at epoch
Visualization orbit readout
Latitude
Unknown
Longitude
Unknown
Altitude
Unknown
Speed
Unknown
Apparent Right ascension
Unknown
Apparent Declination
Unknown
Sunlit
N/A
Visualization observer readout
Local Sidereal Time
11:33:03
Azimuth
Unknown
Elevation
Unknown
Doppler factor
Unknown
Orbital elements
Apogee altitude
486.017 km
Perigee altitude
484.051 km
Semi-major axis
6,863.171 km
Eccentricity
0.00014
Inclination
43.0023°
RAAN
308.359°
Arg. of periapsis
278.5698°
True anomaly
81.51533°
Mean anomaly
81.4991°
Eccentric anomaly
81.50721°
Mean motion
3.8173 °/min
Orbital period
94.31 mins
BSTAR
0.0016287
Loading maneuver chart data...
Computing Atmospheric mass density...
Loading historical data...
Loading historical data...
Loading historical data...
Loading historical data...
Loading historical data...
Loading historical data...
Loading historical data...

Documentation

Showing up to 5 results
|